{"data":{"norad_id":67851,"intl_designator":"2026-034B","name":"STARLINK-36348","alt_names":[],"object_type":"PAYLOAD","status":"ACTIVE","operator":null,"country":"US","launch_date":"2026-02-20","launch_site_code":"AFETR","launch_vehicle":null,"mission":null,"orbit_class":"UNKNOWN","rcs_meters":null,"size_class":null,"mass_kg":null,"dimensions":null,"purposes":["comms"],"wikipedia_slug":null,"has_3d_model":false,"image_url":null,"decayed_at":null,"tle_current":{"epoch":"2026-05-25T04:25:17.245632Z","epoch_age_seconds":59944,"freshness":"FRESH","line1":"1 67851U 26034B   26145.18422738  .00019810  00000+0  67897-3 0  9993","line2":"2 67851  53.1578 209.2224 0001141  81.7756 278.3375 15.30209775 15741","mean_motion":15.30209775,"eccentricity":0.0001141,"inclination_deg":53.1578,"raan_deg":209.2224,"arg_perigee_deg":81.7756,"mean_anomaly_deg":278.3375,"bstar":0.00067897,"rev_number":1574,"period_min":94.104744560268,"perigee_km":474.40391904568,"apogee_km":475.96784732762,"semimajor_km":6853.3228831866,"source":"CELESTRAK","updated_at":"2026-05-25T13:38:21.724784Z"}}}